Find Starlink 11207

NORAD ID: 60933 Int'l Des: 2024-155 Owner: SPXS Country: US Constellation: starlink operational
LEOCIRCULAR

Live Position

Loading 3D Globe...

About Starlink 11207

Description loading...

Upcoming Passes

Passes for default location (London). Set your location on the main map for personalized predictions.

Altitude History

Loading altitude history...

Two-Line Element Set

1 60933U 24155K 26127.95105301 .00007376 00000-0 65714-4 0 9990
2 60933 53.1600 48.8507 0001747 81.3283 278.7933 15.69700588 97716
Epoch: May 7, 2026 • Age: 10 hours

Current Status

Altitude 375.6 km
Velocity 7.68 km/s
Sub-Earth Point -43.91°S, 88.79°W
Launch Date Aug 31, 2024
Age 1.6 years
Type internet

Technical Details

Classification Payload
Mass 960.00 kg
Dry Mass 910.00 kg
Total Mass 960.00 kg
Length 0.30 m
Diameter 4.10 m
Span 29.00 m
Shape Box + pan
Manufacturer SPXS
Bus Type Starlink V2MD
Phase Status In Orbit
Owner/State SPXS/US

Most Searched